Weather History for YSCB - September, 2012

Change the Weather History Date:

Wednesday, September 5, 2012

  Actual Average Record
Temperature  
Mean Temperature 50 °F -  
Max Temperature 71 °F 62 °F - ()
Min Temperature 28 °F 39 °F - ()
Degree Days  
Heating Degree Days 16    
Moisture  
Dew Point 32 °F    
Average Humidity 50    
Maximum Humidity 93    
Minimum Humidity 9    
Precipitation  
Precipitation 0.08 in 0.08 in - ()
Sea Level Pressure  
Sea Level Pressure 29.83 in    
Wind  
Wind Speed 10 mph ()    
Max Wind Speed 37 mph    
Max Gust Speed 50 mph    
Visibility 6.5 miles    
Events Fog , Rain    
T = Trace of Precipitation, MM = Missing Value Source: Averaged Metar Reports

Daily Weather History Graph

Daily Weather History Graph

Search for Another Location

Airport or City:

Trip Planner

Search our weather history database for the weather conditions in past years. The results will help you decide how hot, cold, wet, or windy it might be!

Date:

Astronomy

Sep. 05, 2012 Rise Set
Actual Time 6:17 AM AEST 5:47 PM AEST
Civil Twilight 5:51 AM AEST 6:12 PM AEST
Nautical Twilight 5:22 AM AEST 6:42 PM AEST
Astronomical Twilight 4:52 AM AEST 7:11 PM AEST
Moon 10:21 PM AEST (9/5) 8:23 AM AEST (9/5)
Length of Visible Light 12h 20m
Length of Day
11h 29m
Waning Gibbous, 81% of the Moon is Illuminated
Sep 5
Waning Gibbous
Sep 8
Last Quarter
Sep 16
New
Sep 23
First Quarter
Sep 30
Full

Hourly Weather History & Observations

Time (AEST) Temp. Windchill Dew Point Humidity Pressure Visibility Wind Dir Wind Speed Gust Speed Precip Events Conditions
12:00 AM 37.4 °F - 32.0 °F 81% 30.06 in 6.2 mi Calm Calm - N/A   Unknown
12:30 AM 37.4 °F - 33.8 °F 87% 30.06 in 6.2 mi Calm Calm - N/A   Unknown
1:00 AM 36 °F - 33 °F 82% 30.09 in - Calm Calm - -  
1:00 AM 35.6 °F - 32.0 °F 87% 30.06 in 6.2 mi Calm Calm - N/A   Unknown
1:30 AM 33.8 °F - 32.0 °F 93% 30.06 in 6.2 mi Calm Calm - N/A   Unknown
2:00 AM 33.8 °F - 30.2 °F 87% 30.04 in 6.2 mi Calm Calm - N/A   Unknown
2:30 AM 33.8 °F - 30.2 °F 87% 30.04 in 6.2 mi Calm Calm - N/A   Unknown
3:00 AM 34 °F - 32 °F 90% 30.04 in - Calm Calm - -  
3:00 AM 33.8 °F - 32.0 °F 93% 30.01 in 6.2 mi Calm Calm - N/A   Unknown
3:30 AM 33.8 °F - 32.0 °F 93% 30.01 in 6.2 mi Calm Calm - N/A   Unknown
4:00 AM 31 °F - 29 °F 89% 30.01 in - North 2.3 mph - -  
4:00 AM 32.0 °F - 28.4 °F 87% 30.01 in 6.2 mi North 2.3 mph - N/A   Unknown
4:30 AM 30.2 °F - 28.4 °F 93% 30.01 in - Calm Calm - N/A   Clear
5:00 AM 32.0 °F 27.5 °F 30.2 °F 93% 30.01 in - ESE 4.6 mph - N/A   Clear
5:30 AM 30.2 °F - 28.4 °F 93% 29.98 in 6.2 mi Calm Calm - N/A   Partly Cloudy
5:56 AM 28.4 °F - 26.6 °F 93% 29.98 in 6.2 mi Calm Calm - N/A Fog Patches of Fog
6:00 AM 29 °F - 28 °F 92% 30.01 in - Calm Calm - -  
6:00 AM 28.4 °F - 26.6 °F 93% 29.98 in 6.2 mi Calm Calm - N/A Fog Patches of Fog
6:30 AM 30.2 °F - 28.4 °F 93% 29.98 in 6.2 mi Calm Calm - N/A Fog Patches of Fog
7:00 AM 31 °F - 29 °F 92% 30.00 in - Calm Calm - -  
7:00 AM 32.0 °F - 30.2 °F 93% 29.98 in 6.2 mi Calm Calm - N/A   Partly Cloudy
7:30 AM 35.6 °F - 32.0 °F 87% 29.98 in 6.2 mi Calm Calm - N/A   Partly Cloudy
8:00 AM 41.0 °F - 35.6 °F 81% 29.98 in - SE 1.2 mph - N/A   Clear
8:30 AM 48.2 °F - 33.8 °F 58% 29.95 in - SSE 3.5 mph - N/A   Clear
9:00 AM 53 °F - 32 °F 33% 29.96 in 19 mi WNW 4.6 mph - -   Partly Cloudy
9:00 AM 53.6 °F - 32.0 °F 44% 29.95 in - WNW 4.6 mph - N/A   Clear
9:30 AM 59.0 °F - 30.2 °F 34% 29.92 in - NW 16.1 mph - N/A   Clear
10:00 AM 60 °F - 31 °F 21% 29.93 in - NW 24.2 mph - -  
10:00 AM 59.0 °F - 30.2 °F 34% 29.92 in - NW 24.2 mph - N/A   Clear
10:30 AM 62.6 °F - 28.4 °F 27% 29.89 in - NW 21.9 mph - N/A   Clear
11:00 AM 64.4 °F - 30.2 °F 28% 29.89 in - NNW 24.2 mph - N/A   Clear
11:14 AM 66.2 °F - 30.2 °F 26% 29.86 in - NNW 24.2 mph 35.7 mph N/A   Clear
11:37 AM 66.2 °F - 28.4 °F 24% 29.86 in - NNW 20.7 mph 32.2 mph N/A   Clear
12:00 PM 69 °F - 29 °F 12% 29.84 in - NW 28.8 mph - -  
12:00 PM 69.8 °F - 28.4 °F 21% 29.83 in - NW 28.8 mph 40.3 mph N/A   Clear
12:30 PM 69.8 °F - 26.6 °F 20% 29.80 in - NNW 26.5 mph - N/A   Clear
12:47 PM 71.6 °F - 28.4 °F 20% 29.80 in - NW 21.9 mph 33.4 mph N/A   Clear
1:00 PM 71 °F - 24 °F 9% 29.80 in - NW 27.6 mph - -  
1:00 PM 69.8 °F - 24.8 °F 18% 29.80 in - NW 27.6 mph 39.1 mph N/A   Clear
1:32 PM 71.6 °F - 23.0 °F 16% 29.77 in - NW 25.3 mph 38.0 mph N/A   Clear
2:00 PM 71.6 °F - 23.0 °F 16% 29.74 in - NNW 27.6 mph - N/A   Clear
2:05 PM 71.6 °F - 21.2 °F 15% 29.74 in - NW 24.2 mph 35.7 mph N/A   Clear
2:37 PM 69.8 °F - 19.4 °F 15% 29.74 in - NW 31.1 mph 47.2 mph N/A   Clear
3:00 PM 69 °F - 24 °F 9% 29.75 in - NW 27.6 mph - -  
3:00 PM 69.8 °F - 23.0 °F 17% 29.74 in - NW 27.6 mph 42.6 mph N/A   Clear
3:32 PM 68.0 °F - 26.6 °F 21% 29.71 in - NW 21.9 mph 34.5 mph N/A   Clear
4:00 PM 67 °F - 29 °F 14% 29.70 in - NNW 24.2 mph - -  
4:00 PM 66.2 °F - 28.4 °F 24% 29.68 in - NNW 24.2 mph - N/A   Clear
4:20 PM 66.2 °F - 30.2 °F 26% 29.68 in - NNW 24.2 mph 36.8 mph N/A   Clear
4:30 PM 66.2 °F - 30.2 °F 26% 29.68 in - NNW 25.3 mph - N/A   Clear
5:00 PM 66.2 °F - 30.2 °F 26% 29.65 in 6.2 mi North 19.6 mph - N/A   Overcast
5:30 PM 66.2 °F - 30.2 °F 26% 29.65 in 6.2 mi North 19.6 mph - N/A   Overcast
6:00 PM 65 °F - 31 °F 17% 29.66 in - North 19.6 mph - -   Overcast
6:00 PM 64.4 °F - 30.2 °F 28% 29.65 in 6.2 mi North 19.6 mph - N/A Rain Light Rain Showers
6:34 PM 62.6 °F - 33.8 °F 34% 29.68 in 6.2 mi NNW 17.3 mph 39.1 mph N/A Rain Light Rain Showers
7:00 PM 64 °F - 32 °F 19% 29.67 in - NNW 19.6 mph - -  
7:00 PM 64.4 °F - 32.0 °F 30% 29.65 in 6.2 mi NNW 19.6 mph - N/A Rain Light Rain Showers
7:17 PM 64.4 °F - 32.0 °F 30% 29.65 in 6.2 mi North 23.0 mph 35.7 mph N/A   Overcast
7:29 PM 64.4 °F - 33.8 °F 32% 29.65 in 6.2 mi NNW 25.3 mph 49.5 mph N/A   Overcast
7:30 PM 64.4 °F - 33.8 °F 32% 29.65 in 6.2 mi NNW 36.8 mph 49.5 mph N/A   Overcast
8:00 PM 64.4 °F - 32.0 °F 30% 29.65 in 6.2 mi NW 23.0 mph - N/A   Overcast
8:09 PM 64.4 °F - 33.8 °F 32% 29.68 in 6.2 mi NNW 24.2 mph 40.3 mph N/A   Overcast
8:30 PM 62.6 °F - 33.8 °F 34% 29.62 in 6.2 mi NNW 21.9 mph - N/A   Overcast
9:00 PM 63 °F - 33 °F 21% 29.65 in - NNW 24.2 mph - -   Overcast
9:00 PM 62.6 °F - 33.8 °F 34% 29.62 in 6.2 mi NNW 24.2 mph - N/A   Mostly Cloudy
9:12 PM 62.6 °F - 35.6 °F 37% 29.65 in 6.2 mi WNW 15.0 mph - N/A   Overcast
9:16 PM 60.8 °F - 39.2 °F 45% 29.68 in 6.2 mi WNW 17.3 mph 29.9 mph N/A   Overcast
9:30 PM 55.4 °F - 44.6 °F 67% 29.71 in 5.6 mi WNW 21.9 mph 33.4 mph N/A   Overcast
10:00 PM 54 °F - 47 °F 69% 29.70 in - NW 12.7 mph - -  
10:00 PM 55.4 °F - 46.4 °F 72% 29.68 in 6.2 mi NW 12.7 mph - N/A   Overcast
10:25 PM 55.4 °F - 46.4 °F 72% 29.68 in 6.2 mi NNW 20.7 mph 32.2 mph N/A   Overcast
10:30 PM 55.4 °F - 46.4 °F 72% 29.68 in 6.2 mi NNW 20.7 mph 32.2 mph N/A   Overcast
11:00 PM 53.6 °F - 48.2 °F 82% 29.68 in 6.2 mi NW 15.0 mph - N/A   Overcast
11:30 PM 53.6 °F - 48.2 °F 82% 29.68 in 6.2 mi NNW 13.8 mph - N/A   Overcast